Погода в Архиповке

Россия / Оренбургская область     52°02′50″N   55°25′33″E
темп.,
°C
ветер,
м/с
пор.,
м/с
влажн.,
%
обл.,
%
осадки,
мм/ч
давл.,
гПа
погр.,
м
21 июня, пн
пн2123:00+21ссз412780 0.0 1019314
02:00+17с410870 0.0 1020218
05:00+15с37740 0.0 1021123
08:00+19ссв46525 0.0 1022301
11:00+24ссв45355 0.0 1022973
14:00+27с57345 0.0 10221293
17:00+27ссв56390 0.0 10221353
20:00+24ссв46535 0.0 1022269
22 июня, вт
вт2223:00+19св23653 0.0 102227
02:00+18ссв01674 0.0 102211
05:00+18сз11704 0.0 102211
08:00+23зсз246035 0.0 1022245
11:00+26сз35502 0.0 1022926
14:00+31ссз55396 0.0 10212404
17:00+31с563727 0.0 10202107
20:00+28ссз365011 0.0 1019146
23 июня, ср
ср2323:00+24ссз22590 0.0 102024
02:00+21ссз11665 0.0 102011
05:00+21сз117169 0.0 101911
08:00+25сз34624 0.1 1019260
11:00+30сз57431 0.1 10181888
14:00+32ссз683782 0.0 10172736
17:00+32ссз683513 0.0 10172781
20:00+26зсз586072 0.3 1016265
24 июня, чт
чт2423:00+19юв3694100 1.5 1017114
02:00+19зюз119068 0.0 101711
05:00+18ссв11915 0.0 101711
08:00+22с24775 0.0 1017352
11:00+26с34585 0.0 10161164
14:00+29с454532 0.0 10161983
17:00+30ссв554118 0.0 10152229
20:00+27всв355217 0.0 1015245
25 июня, пт
пт2523:00+21св33710 0.0 101635
02:00+20св22750 0.0 101621
05:00+18ссв11811 0.0 101611
08:00+23с22640 0.0 1016236
11:00+27сз33500 0.0 10151209
14:00+31ссз34400 0.0 10142047
17:00+32сз44360 0.0 10132390
20:00+30ссз354755 0.0 1012165